Time,TemperatureF,DewpointF,PressureIn,WindDirection,WindDirectionDegrees,WindSpeedMPH,WindSpeedGustMPH,Humidity,HourlyPrecipIn,Conditions,Clouds,dailyrainin,SolarRadiationWatts/m^2,SoftwareType,DateUTC
2013-08-03 00:00:00,66.3,61.7,29.93,WSW,255,0.0,0.0,85,0.00,,,0.00,0,Wunderground v.1.15,2013-08-03 04:00:00,
2013-08-03 00:10:00,66.5,61.5,29.93,WSW,255,0.0,0.0,84,0.00,,,0.00,0,Wunderground v.1.15,2013-08-03 04:10:00,
2013-08-03 00:20:00,66.9,61.6,29.92,WSW,255,0.0,0.0,83,0.00,,,0.00,0,Wunderground v.1.15,2013-08-03 04:20:00,
2013-08-03 00:30:00,66.0,61.7,29.92,WSW,255,0.0,0.0,86,0.00,,,0.00,0,Wunderground v.1.15,2013-08-03 04:30:00,
2013-08-03 00:40:00,65.8,61.5,29.92,WSW,251,0.0,0.0,86,0.00,,,0.00,0,Wunderground v.1.15,2013-08-03 04:40:00,
2013-08-03 00:50:00,66.5,61.8,29.92,WSW,251,0.0,0.0,85,0.00,,,0.00,0,Wunderground v.1.15,2013-08-03 04:50:00,
2013-08-03 01:00:00,66.2,61.9,29.92,WSW,251,0.0,0.0,86,0.00,,,0.00,0,Wunderground v.1.15,2013-08-03 05:00:00,
2013-08-03 01:10:00,65.8,61.8,29.92,WSW,251,0.0,0.0,87,0.00,,,0.00,0,Wunderground v.1.15,2013-08-03 05:10:00,
2013-08-03 01:20:00,65.7,61.7,29.92,WSW,251,0.0,0.0,87,0.00,,,0.00,0,Wunderground v.1.15,2013-08-03 05:20:00,
2013-08-03 01:30:00,65.1,61.5,29.91,WSW,251,0.0,0.0,88,0.00,,,0.00,0,Wunderground v.1.15,2013-08-03 05:30:00,
2013-08-03 01:40:00,64.8,61.2,29.91,WSW,251,0.0,0.0,88,0.00,,,0.00,0,Wunderground v.1.15,2013-08-03 05:40:00,
2013-08-03 01:50:00,64.6,61.0,29.91,WSW,251,0.0,0.0,88,0.00,,,0.00,0,Wunderground v.1.15,2013-08-03 05:50:00,
2013-08-03 02:00:00,65.5,61.2,29.91,WSW,251,0.0,0.0,86,0.00,,,0.00,0,Wunderground v.1.15,2013-08-03 06:00:00,
2013-08-03 02:10:00,66.1,61.1,29.91,WSW,251,0.0,0.0,84,0.00,,,0.00,0,Wunderground v.1.15,2013-08-03 06:10:00,
2013-08-03 02:20:00,66.4,61.1,29.91,WSW,251,0.0,0.0,83,0.00,,,0.00,0,Wunderground v.1.15,2013-08-03 06:20:00,
2013-08-03 02:30:00,66.3,61.0,29.91,WSW,251,0.0,0.0,83,0.00,,,0.00,0,Wunderground v.1.15,2013-08-03 06:30:00,
2013-08-03 02:40:00,66.5,61.2,29.91,WSW,251,0.0,0.0,83,0.00,,,0.00,0,Wunderground v.1.15,2013-08-03 06:40:00,
2013-08-03 02:50:00,65.7,61.1,29.91,WSW,251,0.0,0.0,85,0.00,,,0.00,0,Wunderground v.1.15,2013-08-03 06:50:00,
2013-08-03 03:00:00,65.9,61.3,29.91,WSW,251,0.0,0.0,85,0.00,,,0.00,0,Wunderground v.1.15,2013-08-03 07:00:00,
2013-08-03 03:10:00,66.5,61.2,29.91,WSW,251,0.0,0.0,83,0.00,,,0.00,0,Wunderground v.1.15,2013-08-03 07:10:00,
2013-08-03 03:20:00,66.3,61.3,29.91,WSW,251,0.0,0.0,84,0.00,,,0.00,0,Wunderground v.1.15,2013-08-03 07:20:00,
2013-08-03 03:30:00,66.0,61.7,29.91,WSW,251,0.0,0.0,86,0.00,,,0.00,0,Wunderground v.1.15,2013-08-03 07:30:00,
2013-08-03 03:40:00,66.2,61.9,29.91,WSW,251,0.0,0.0,86,0.00,,,0.00,0,Wunderground v.1.15,2013-08-03 07:40:00,
2013-08-03 03:50:00,65.8,61.8,29.91,WSW,251,0.0,0.0,87,0.00,,,0.00,0,Wunderground v.1.15,2013-08-03 07:50:00,
2013-08-03 04:00:00,66.2,61.9,29.91,WSW,251,0.0,0.0,86,0.00,,,0.00,0,Wunderground v.1.15,2013-08-03 08:00:00,
2013-08-03 04:10:00,66.3,62.0,29.91,WSW,251,0.0,0.0,86,0.00,,,0.00,0,Wunderground v.1.15,2013-08-03 08:10:00,
2013-08-03 04:20:00,66.8,62.1,29.91,WSW,251,0.0,0.0,85,0.00,,,0.00,0,Wunderground v.1.15,2013-08-03 08:20:00,
2013-08-03 04:30:00,67.1,62.1,29.91,WSW,251,0.0,0.0,84,0.00,,,0.00,0,Wunderground v.1.15,2013-08-03 08:30:00,
2013-08-03 04:40:00,67.3,62.3,29.91,WSW,251,0.0,0.0,84,0.00,,,0.00,0,Wunderground v.1.15,2013-08-03 08:40:00,
2013-08-03 04:50:00,67.0,62.0,29.91,WSW,251,0.0,0.0,84,0.00,,,0.00,0,Wunderground v.1.15,2013-08-03 08:50:00,
2013-08-03 05:00:00,66.8,62.1,29.92,WSW,251,0.0,0.0,85,0.00,,,0.00,0,Wunderground v.1.15,2013-08-03 09:00:00,
2013-08-03 05:10:00,66.6,62.3,29.91,WSW,251,0.0,0.0,86,0.00,,,0.00,0,Wunderground v.1.15,2013-08-03 09:10:00,
2013-08-03 05:19:00,66.8,62.5,29.91,WSW,251,0.0,0.0,86,0.00,,,0.00,0,Wunderground v.1.15,2013-08-03 09:19:00,
2013-08-03 05:30:00,66.9,62.6,29.91,WSW,251,0.0,0.0,86,0.00,,,0.00,0,Wunderground v.1.15,2013-08-03 09:30:00,
2013-08-03 05:40:00,67.0,62.7,29.91,WSW,251,0.0,0.0,86,0.00,,,0.00,0,Wunderground v.1.15,2013-08-03 09:40:00,
2013-08-03 05:50:00,67.0,62.7,29.91,WSW,251,0.0,0.0,86,0.00,,,0.00,0,Wunderground v.1.15,2013-08-03 09:50:00,
2013-08-03 06:00:00,67.5,62.8,29.91,WSW,251,0.0,0.0,85,0.00,,,0.00,0,Wunderground v.1.15,2013-08-03 10:00:00,
2013-08-03 06:09:00,68.5,62.8,29.91,WSW,251,0.0,0.0,82,0.00,,,0.00,0,Wunderground v.1.15,2013-08-03 10:09:00,
2013-08-03 06:20:00,68.2,62.8,29.91,WSW,251,0.0,0.0,83,0.00,,,0.00,0,Wunderground v.1.15,2013-08-03 10:20:00,
2013-08-03 06:30:00,67.8,62.8,29.92,WSW,251,0.0,0.0,84,0.00,,,0.00,5,Wunderground v.1.15,2013-08-03 10:30:00,
2013-08-03 06:40:00,68.0,62.6,29.92,WSW,251,0.0,0.0,83,0.00,,,0.00,14,Wunderground v.1.15,2013-08-03 10:40:00,
2013-08-03 06:50:00,68.0,63.0,29.92,WSW,251,0.0,0.0,84,0.00,,,0.00,18,Wunderground v.1.15,2013-08-03 10:50:00,
2013-08-03 07:00:00,68.3,62.9,29.92,WSW,251,0.0,0.0,83,0.00,,,0.00,12,Wunderground v.1.15,2013-08-03 11:00:00,
2013-08-03 07:10:00,70.2,63.0,29.92,WSW,251,0.0,0.0,78,0.00,,,0.00,9,Wunderground v.1.15,2013-08-03 11:10:00,
2013-08-03 07:19:00,72.0,62.5,29.92,West,260,0.0,0.0,72,0.00,,,0.00,7,Wunderground v.1.15,2013-08-03 11:19:00,
2013-08-03 07:30:00,71.3,63.3,29.92,West,260,0.0,0.0,76,0.00,,,0.00,14,Wunderground v.1.15,2013-08-03 11:30:00,
2013-08-03 07:40:00,70.0,64.2,29.92,West,260,0.0,0.0,82,0.00,,,0.00,28,Wunderground v.1.15,2013-08-03 11:40:00,
2013-08-03 07:50:00,68.8,64.4,29.92,West,260,0.0,0.0,86,0.00,,,0.00,19,Wunderground v.1.15,2013-08-03 11:50:00,
2013-08-03 08:00:00,68.4,64.4,29.92,West,260,0.0,0.0,87,0.00,,,0.00,21,Wunderground v.1.15,2013-08-03 12:00:00,
2013-08-03 08:10:00,68.7,65.0,29.92,West,260,0.0,0.0,88,0.00,,,0.00,35,Wunderground v.1.15,2013-08-03 12:10:00,
2013-08-03 08:20:00,68.6,65.2,29.92,West,260,0.0,0.0,89,0.00,,,0.00,63,Wunderground v.1.15,2013-08-03 12:20:00,
2013-08-03 08:30:00,68.5,65.1,29.92,West,260,0.0,0.0,89,0.00,,,0.00,84,Wunderground v.1.15,2013-08-03 12:30:00,
2013-08-03 08:40:00,68.9,65.5,29.92,West,260,0.0,0.0,89,0.00,,,0.00,49,Wunderground v.1.15,2013-08-03 12:40:00,
2013-08-03 08:50:00,69.1,65.1,29.93,West,260,0.0,0.0,87,0.00,,,0.00,39,Wunderground v.1.15,2013-08-03 12:50:00,
2013-08-03 09:00:00,69.2,65.2,29.92,West,260,0.0,0.0,87,0.00,,,0.00,42,Wunderground v.1.15,2013-08-03 13:00:00,
2013-08-03 09:10:00,69.4,65.0,29.93,West,260,0.0,0.0,86,0.00,,,0.00,42,Wunderground v.1.15,2013-08-03 13:10:00,
2013-08-03 09:20:00,69.6,64.5,29.93,West,260,0.0,0.0,84,0.00,,,0.00,81,Wunderground v.1.15,2013-08-03 13:20:00,
2013-08-03 09:30:00,70.3,64.9,29.93,West,260,0.0,0.0,83,0.00,,,0.00,113,Wunderground v.1.15,2013-08-03 13:30:00,
2013-08-03 09:40:00,71.0,64.9,29.93,West,260,0.0,0.0,81,0.00,,,0.00,132,Wunderground v.1.15,2013-08-03 13:40:00,
2013-08-03 09:50:00,71.8,64.9,29.93,West,260,0.0,0.0,79,0.00,,,0.00,134,Wunderground v.1.15,2013-08-03 13:50:00,
2013-08-03 10:00:00,72.5,66.0,29.94,West,260,0.0,0.0,80,0.00,,,0.00,116,Wunderground v.1.15,2013-08-03 14:00:00,
2013-08-03 10:10:00,72.5,66.3,29.93,West,260,0.0,0.0,81,0.00,,,0.00,137,Wunderground v.1.15,2013-08-03 14:10:00,
2013-08-03 10:20:00,72.7,66.5,29.94,West,260,0.0,0.0,81,0.00,,,0.00,134,Wunderground v.1.15,2013-08-03 14:20:00,
2013-08-03 10:29:00,72.6,66.8,29.93,West,260,0.0,0.0,82,0.00,,,0.00,130,Wunderground v.1.15,2013-08-03 14:29:00,
2013-08-03 10:40:00,72.4,66.2,29.94,SSW,213,0.0,0.0,81,0.00,,,0.00,120,Wunderground v.1.15,2013-08-03 14:40:00,
2013-08-03 10:50:00,72.2,66.7,29.93,South,178,0.0,0.0,83,0.00,,,0.00,165,Wunderground v.1.15,2013-08-03 14:50:00,
2013-08-03 10:59:00,72.2,67.1,29.93,South,178,0.0,1.0,84,0.00,,,0.00,65,Wunderground v.1.15,2013-08-03 14:59:00,
2013-08-03 11:10:00,71.7,66.6,29.93,South,178,0.0,0.0,84,0.00,,,0.00,56,Wunderground v.1.15,2013-08-03 15:10:00,
2013-08-03 11:20:00,71.5,66.8,29.93,South,178,0.0,0.0,85,0.00,,,0.00,62,Wunderground v.1.15,2013-08-03 15:20:00,
2013-08-03 11:30:00,71.4,66.3,29.93,South,178,0.0,0.0,84,0.00,,,0.00,121,Wunderground v.1.15,2013-08-03 15:30:00,
2013-08-03 11:40:00,71.5,67.4,29.94,South,177,0.0,0.0,87,0.00,,,0.00,77,Wunderground v.1.15,2013-08-03 15:40:00,
2013-08-03 11:50:00,70.4,66.7,29.94,South,176,0.0,0.0,88,0.00,,,0.01,81,Wunderground v.1.15,2013-08-03 15:50:00,
2013-08-03 12:00:00,70.0,66.9,29.94,South,176,0.0,0.0,90,0.21,,,0.03,153,Wunderground v.1.15,2013-08-03 16:00:00,
2013-08-03 12:10:00,69.6,67.2,29.93,South,176,0.0,0.0,92,0.05,,,0.03,141,Wunderground v.1.15,2013-08-03 16:10:00,
2013-08-03 12:20:00,69.4,67.0,29.92,SSW,204,0.0,0.0,92,0.00,,,0.04,134,Wunderground v.1.15,2013-08-03 16:20:00,
2013-08-03 12:30:00,69.4,67.3,29.92,SE,140,0.0,0.0,93,0.00,,,0.04,207,Wunderground v.1.15,2013-08-03 16:30:00,
2013-08-03 12:39:00,69.8,67.7,29.93,SSE,157,0.0,0.0,93,0.00,,,0.04,236,Wunderground v.1.15,2013-08-03 16:39:00,
2013-08-03 12:50:00,70.0,67.6,29.93,SSE,157,0.0,0.0,92,0.00,,,0.04,111,Wunderground v.1.15,2013-08-03 16:50:00,
2013-08-03 13:00:00,69.9,67.2,29.93,SSE,157,0.0,0.0,91,0.00,,,0.04,137,Wunderground v.1.15,2013-08-03 17:00:00,
2013-08-03 13:10:00,70.4,68.0,29.93,WSW,250,0.0,0.0,92,0.00,,,0.04,227,Wunderground v.1.15,2013-08-03 17:10:00,
2013-08-03 13:20:00,70.7,67.9,29.92,SSW,201,0.0,0.0,91,0.00,,,0.04,294,Wunderground v.1.15,2013-08-03 17:20:00,
2013-08-03 13:30:00,71.1,68.0,29.92,SW,236,0.0,0.0,90,0.00,,,0.04,341,Wunderground v.1.15,2013-08-03 17:30:00,
2013-08-03 13:40:00,72.4,68.6,29.92,SSW,212,0.0,0.0,88,0.00,,,0.04,346,Wunderground v.1.15,2013-08-03 17:40:00,
2013-08-03 13:49:00,72.8,68.7,29.92,SSE,159,0.0,0.0,87,0.00,,,0.04,200,Wunderground v.1.15,2013-08-03 17:49:00,
2013-08-03 14:00:00,72.5,68.1,29.92,West,260,0.0,0.0,86,0.00,,,0.04,155,Wunderground v.1.15,2013-08-03 18:00:00,
2013-08-03 14:10:00,72.4,68.0,29.92,WSW,258,0.0,0.0,86,0.00,,,0.04,86,Wunderground v.1.15,2013-08-03 18:10:00,
2013-08-03 14:20:00,72.2,67.8,29.92,WSW,258,0.0,0.0,86,0.00,,,0.04,49,Wunderground v.1.15,2013-08-03 18:20:00,
2013-08-03 14:29:00,71.9,67.8,29.92,WSW,258,0.0,0.0,87,0.00,,,0.04,21,Wunderground v.1.15,2013-08-03 18:29:00,
2013-08-03 14:40:00,71.7,68.0,29.92,WSW,258,0.0,0.0,88,0.00,,,0.04,42,Wunderground v.1.15,2013-08-03 18:40:00,
2013-08-03 14:50:00,71.2,68.1,29.92,SSE,156,0.0,0.0,90,0.10,,,0.06,81,Wunderground v.1.15,2013-08-03 18:50:00,
2013-08-03 15:00:00,70.8,68.4,29.92,SSE,156,0.0,0.0,92,0.07,,,0.07,47,Wunderground v.1.15,2013-08-03 19:00:00,
2013-08-03 15:10:00,70.5,68.1,29.92,SSE,156,0.0,0.0,92,0.20,,,0.09,37,Wunderground v.1.15,2013-08-03 19:10:00,
2013-08-03 15:20:00,70.2,68.1,29.92,SSE,156,0.0,0.0,93,0.14,,,0.12,47,Wunderground v.1.15,2013-08-03 19:20:00,
2013-08-03 15:30:00,69.5,67.4,29.92,SSE,157,0.0,0.0,93,0.17,,,0.15,76,Wunderground v.1.15,2013-08-03 19:30:00,
2013-08-03 15:40:00,69.6,67.8,29.92,SSE,159,0.0,0.0,94,0.09,,,0.17,51,Wunderground v.1.15,2013-08-03 19:40:00,
2013-08-03 15:50:00,69.5,67.7,29.92,SSE,159,0.0,0.0,94,0.11,,,0.19,40,Wunderground v.1.15,2013-08-03 19:50:00,
2013-08-03 16:00:00,69.3,67.5,29.92,SSE,159,0.0,0.0,94,0.07,,,0.20,46,Wunderground v.1.15,2013-08-03 20:00:00,
2013-08-03 16:10:00,69.4,67.9,29.92,SSE,159,0.0,0.0,95,0.07,,,0.21,63,Wunderground v.1.15,2013-08-03 20:10:00,
2013-08-03 16:20:00,69.3,67.8,29.91,SSE,159,0.0,0.0,95,0.07,,,0.22,84,Wunderground v.1.15,2013-08-03 20:20:00,
2013-08-03 16:30:00,69.4,67.9,29.91,SSE,154,0.0,0.0,95,0.00,,,0.22,135,Wunderground v.1.15,2013-08-03 20:30:00,
2013-08-03 16:40:00,69.5,68.0,29.90,SSE,159,0.0,0.0,95,0.00,,,0.22,169,Wunderground v.1.15,2013-08-03 20:40:00,
2013-08-03 16:49:00,69.7,68.2,29.91,SSE,159,0.0,0.0,95,0.00,,,0.22,156,Wunderground v.1.15,2013-08-03 20:49:00,
2013-08-03 17:00:00,69.7,68.2,29.91,SSE,159,0.0,0.0,95,0.00,,,0.22,79,Wunderground v.1.15,2013-08-03 21:00:00,
2013-08-03 17:09:00,69.8,68.3,29.91,SSE,159,0.0,0.0,95,0.00,,,0.22,56,Wunderground v.1.15,2013-08-03 21:09:00,
2013-08-03 17:20:00,70.1,68.6,29.91,SSE,159,0.0,0.0,95,0.00,,,0.22,63,Wunderground v.1.15,2013-08-03 21:20:00,
2013-08-03 17:30:00,69.9,68.4,29.91,SSE,159,0.0,0.0,95,0.00,,,0.22,100,Wunderground v.1.15,2013-08-03 21:30:00,
2013-08-03 17:40:00,70.1,68.6,29.90,SSE,159,0.0,0.0,95,0.00,,,0.22,132,Wunderground v.1.15,2013-08-03 21:40:00,
2013-08-03 17:49:00,70.3,68.5,29.90,SSE,159,0.0,0.0,94,0.00,,,0.22,100,Wunderground v.1.15,2013-08-03 21:49:00,
2013-08-03 18:00:00,70.6,68.8,29.90,SSE,159,0.0,0.0,94,0.00,,,0.22,104,Wunderground v.1.15,2013-08-03 22:00:00,
2013-08-03 18:10:00,70.5,68.7,29.89,SSE,159,0.0,0.0,94,0.00,,,0.22,67,Wunderground v.1.15,2013-08-03 22:10:00,
2013-08-03 18:20:00,70.6,68.8,29.89,SSE,159,0.0,0.0,94,0.00,,,0.22,46,Wunderground v.1.15,2013-08-03 22:20:00,
2013-08-03 18:29:00,70.5,68.7,29.90,SSE,159,0.0,0.0,94,0.00,,,0.22,37,Wunderground v.1.15,2013-08-03 22:29:00,
2013-08-03 18:40:00,70.2,68.4,29.89,WSW,240,0.0,0.0,94,0.00,,,0.22,25,Wunderground v.1.15,2013-08-03 22:40:00,
2013-08-03 18:50:00,70.0,68.2,29.90,SW,233,0.0,0.0,94,0.00,,,0.23,28,Wunderground v.1.15,2013-08-03 22:50:00,
2013-08-03 19:00:00,69.5,67.7,29.90,SW,221,0.0,0.0,94,0.00,,,0.23,9,Wunderground v.1.15,2013-08-03 23:00:00,
2013-08-03 19:09:00,69.2,67.4,29.89,WSW,243,0.0,0.0,94,0.22,,,0.25,21,Wunderground v.1.15,2013-08-03 23:09:00,
2013-08-03 19:20:00,68.6,66.8,29.90,West,261,1.0,1.0,94,0.05,,,0.25,32,Wunderground v.1.15,2013-08-03 23:20:00,
2013-08-03 19:30:00,68.3,66.5,29.90,West,274,0.0,0.0,94,0.00,,,0.25,26,Wunderground v.1.15,2013-08-03 23:30:00,
2013-08-03 19:39:00,68.2,66.4,29.90,West,274,0.0,0.0,94,0.00,,,0.25,21,Wunderground v.1.15,2013-08-03 23:39:00,
2013-08-03 19:50:00,68.0,66.2,29.91,West,274,0.0,0.0,94,0.00,,,0.25,16,Wunderground v.1.15,2013-08-03 23:50:00,
2013-08-03 20:00:00,68.0,66.5,29.91,West,274,0.0,0.0,95,0.00,,,0.25,12,Wunderground v.1.15,2013-08-04 00:00:00,
2013-08-03 20:10:00,67.9,66.4,29.91,West,274,0.0,0.0,95,0.00,,,0.25,7,Wunderground v.1.15,2013-08-04 00:10:00,
2013-08-03 20:20:00,67.8,66.3,29.91,West,274,0.0,0.0,95,0.00,,,0.25,0,Wunderground v.1.15,2013-08-04 00:20:00,
2013-08-03 20:30:00,67.5,66.0,29.91,West,274,0.0,0.0,95,0.00,,,0.25,0,Wunderground v.1.15,2013-08-04 00:30:00,
2013-08-03 20:40:00,67.0,65.5,29.92,West,274,0.0,0.0,95,0.00,,,0.25,0,Wunderground v.1.15,2013-08-04 00:40:00,
2013-08-03 20:50:00,67.2,66.0,29.91,West,274,0.0,0.0,96,0.00,,,0.25,0,Wunderground v.1.15,2013-08-04 00:50:00,
2013-08-03 21:00:00,66.7,65.2,29.91,West,274,0.0,0.0,95,0.00,,,0.25,0,Wunderground v.1.15,2013-08-04 01:00:00,
2013-08-03 21:10:00,66.4,65.2,29.92,West,274,0.0,0.0,96,0.00,,,0.25,0,Wunderground v.1.15,2013-08-04 01:10:00,
2013-08-03 21:20:00,65.9,64.7,29.92,West,274,0.0,0.0,96,0.00,,,0.25,0,Wunderground v.1.15,2013-08-04 01:20:00,
2013-08-03 21:30:00,65.6,64.4,29.92,West,271,0.0,0.0,96,0.00,,,0.25,0,Wunderground v.1.15,2013-08-04 01:30:00,
2013-08-03 21:39:00,65.8,64.6,29.92,West,271,0.0,0.0,96,0.00,,,0.25,0,Wunderground v.1.15,2013-08-04 01:39:00,
2013-08-03 21:50:00,66.0,64.8,29.92,West,271,0.0,0.0,96,0.00,,,0.25,0,Wunderground v.1.15,2013-08-04 01:50:00,
2013-08-03 22:00:00,66.1,64.9,29.92,West,271,0.0,0.0,96,0.00,,,0.25,0,Wunderground v.1.15,2013-08-04 02:00:00,
2013-08-03 22:10:00,66.1,64.9,29.92,West,271,0.0,0.0,96,0.00,,,0.25,0,Wunderground v.1.15,2013-08-04 02:10:00,
2013-08-03 22:20:00,66.3,65.4,29.92,West,271,0.0,0.0,97,0.00,,,0.25,0,Wunderground v.1.15,2013-08-04 02:20:00,
2013-08-03 22:30:00,66.1,65.2,29.91,West,271,0.0,0.0,97,0.00,,,0.25,0,Wunderground v.1.15,2013-08-04 02:30:00,
2013-08-03 22:39:00,65.7,64.8,29.92,West,271,0.0,0.0,97,0.00,,,0.25,0,Wunderground v.1.15,2013-08-04 02:39:00,
2013-08-03 22:50:00,65.4,64.5,29.92,West,271,0.0,0.0,97,0.00,,,0.25,0,Wunderground v.1.15,2013-08-04 02:50:00,
2013-08-03 23:00:00,65.6,64.7,29.92,West,271,0.0,0.0,97,0.00,,,0.25,0,Wunderground v.1.15,2013-08-04 03:00:00,
2013-08-03 23:10:00,65.3,64.4,29.92,West,271,0.0,0.0,97,0.00,,,0.25,0,Wunderground v.1.15,2013-08-04 03:10:00,
2013-08-03 23:20:00,64.7,63.8,29.92,West,271,0.0,0.0,97,0.00,,,0.25,0,Wunderground v.1.15,2013-08-04 03:20:00,
2013-08-03 23:30:00,64.9,64.0,29.92,West,271,0.0,0.0,97,0.00,,,0.25,0,Wunderground v.1.15,2013-08-04 03:30:00,
2013-08-03 23:40:00,64.8,63.9,29.92,West,271,0.0,0.0,97,0.00,,,0.25,0,Wunderground v.1.15,2013-08-04 03:40:00,
2013-08-03 23:50:00,64.3,63.4,29.92,West,271,0.0,0.0,97,0.00,,,0.25,0,Wunderground v.1.15,2013-08-04 03:50:00,